Showing default

O3B FM8, 40082

Orbit data source: Space-Track

O3B FM8, 40082 is a payload satellite owned by O3B (JE) that was launched on Thu, 10 Jul 2014 UTC via a SOYUZ-ST-B launch vehicle from the French Guiana (FRGUI). Payload-class satellites include a variety of spacecraft equipped with specific instruments for various scientific and technological missions. These include communications satellites like Starlink; space stations such as the ISS; scientific satellites like the Hubble; Earth observation satellites from companies like Planet Labs, Umbra, and HawkEye 360; GPS; miniature CubeSats for education and research; and military/defense satellites.

Loading next visibility...
Identifier
40082, 2014-038D
Orbit
Active
Last TLE update
14 hours ago
Origin
Manufacturer
Thales Alenia
Mission
Operational Commercial Communications
Bus & Motor
PRISMA?, LS-400 AOCS?
Mass
700 kg wet, ~500 kg dry
Launch date (UTC)
2014-07-10 (11 years ago)
Launch vehicle
SOYUZ-ST-B
Launch site
French Guiana (FRGUI)
Object type
Payload
Rocket body
Debris
Shape & HBR
Trap Box + 2 Pan, 12 m
Radar Cross Section
21.980 m², Large (>1 m²)

Expand to show TLE details & history

TLE from 14 hours ago
0 O3B FM8
1 40082U 14038D   25133.75109414 -.00000017  00000-0  00000-0 0  9994
2 40082   0.0495   9.0149 0002628  41.8253 309.1859  5.00115776197967
Epoch: 2025-05-13T18:01Z
Definitive object data (Epoch: 2025-05-13T18:01:34.533Z)
Latitude
-0.00303°
Longitude
-142.13923°
Altitude
8,061.967 km
Speed
5.255 km/s
True Right ascension
23h 59m 59s
True Declination
0° 00' 11"
Sunlit
Object was in daylight at TLE epoch
Visualization TLE readout
Latitude
-0.04756°
Longitude
151.54165°
Altitude
8,066.125 km
Speed
5.254 km/s
Apparent Right ascension
20h 50m 08s
Apparent Declination
-18° 31' 40"
Sunlit
Object is in daylight
Visualization observer readout
Local Sidereal Time
16:00:48
Azimuth
115.368° SE
Elevation
0.963°
Doppler factor
1
Orbital elements
Apogee altitude
8,072.74 km
Perigee altitude
8,065.147 km
Semi-major axis
14,447.08 km
Eccentricity
0.0002628
Inclination
0.0495°
RAAN
9.0149°
Arg. of periapsis
41.8253°
True anomaly
309.16255°
Mean anomaly
309.1859°
Eccentric anomaly
309.17423°
Mean motion
1.24989 °/min
BSTAR
Unknown
Orbital period
288.02 mins
Loading maneuver chart data...
Loading SW <> Apogee altitude chart data...
Loading historical data...
Loading historical data...
Loading historical data...
Loading historical data...
Loading historical data...
Loading historical data...
Loading historical data...
Other satellites on launch #38 in the year 2014 (2014-07-10 UTC)

O3B FM8 Visibility forecast

Observer location: undefined°, undefined°

Span
Click to sort rows by Start time (UTC) header in descending order
Start Az.
Max El. time (UTC)
Max El. Az.
Max El.
End time (UTC)
End Az.
79 mins2025-05-14 11:59:04.730Z232.117° WSW2025-05-14 12:39:04.730Z179.258° S24.334°2025-05-14 13:18:04.730Z127.869° SE
78 mins2025-05-14 18:00:04.730Z231.163° WSW2025-05-14 18:39:04.730Z179.213° S24.395°2025-05-14 19:18:04.730Z127.791° SE
78 mins2025-05-15 00:00:04.730Z231.161° WSW2025-05-15 00:38:04.730Z180.724° SSW24.402°2025-05-15 01:18:04.730Z127.832° SE
78 mins2025-05-15 06:00:04.730Z231.12° WSW2025-05-15 06:38:04.730Z180.765° SSW24.34°2025-05-15 07:18:04.730Z127.909° SE
|